North Tumbulgum, Australia

9:42 PM AEST on August 19, 2017 (GMT +1000)
North Tumbulgum

Weather History for 94592 - July, 2013

Change the Weather History Date:

Thursday, July 4, 2013

  Actual Average Record
Temperature  
Mean Temperature 64 °F -  
Max Temperature 71 °F - - ()
Min Temperature 57 °F - - ()
Degree Days  
Heating Degree Days 1    
Growing Degree Days 14 (Base 50)    
Moisture  
Dew Point 57 °F    
Average Humidity 79    
Maximum Humidity 94    
Minimum Humidity 41    
Precipitation  
Precipitation 0.00 in - - ()
Sea Level Pressure  
Sea Level Pressure 30.11 in    
Wind  
Wind Speed 4 mph ()    
Max Wind Speed 10 mph    
Max Gust Speed -    
Visibility 6.1 miles    
Events      
T = Trace of Precipitation, MM = Missing Value Source: Averaged Metar Reports

Daily Weather History Graph

Daily Weather History Graph

Search for Another Location

Airport or City:

Trip Planner

Search our weather history database for the weather conditions in past years. The results will help you decide how hot, cold, wet, or windy it might be!

Date:

Astronomy

Jul. 04, 2013 Rise Set
Actual Time 6:38 AM AEST 5:02 PM AEST
Civil Twilight 6:12 AM AEST 5:28 PM AEST
Nautical Twilight 5:43 AM AEST 5:57 PM AEST
Astronomical Twilight 5:14 AM AEST 6:26 PM AEST
Moon 2:56 AM AEST (7/4) 1:55 PM AEST (7/4)
Length of Visible Light 11h 15m
Length of Day
10h 24m
Waning Crescent, 15% of the Moon is Illuminated
Jul 4
Waning Crescent
Jul 8
New
Jul 16
First Quarter
Jul 23
Full
Jul 30
Last Quarter

Hourly Weather History & Observations

Time (AEST) Temp. Dew Point Humidity Pressure Visibility Wind Dir Wind Speed Gust Speed Precip Events Conditions
12:00 AM 64 °F 58 °F 75% 30.21 in - SW 2.3 mph - -   Overcast
12:00 AM 64.4 °F 59.0 °F 83% 30.18 in 6.2 mi SW 2.3 mph - N/A   Overcast
12:05 AM 64.4 °F 59.0 °F 83% 30.18 in 3.7 mi Calm Calm - N/A   Overcast
12:30 AM 62.6 °F 59.0 °F 88% 30.18 in 6.2 mi SW 3.5 mph - N/A   Overcast
1:00 AM 62.6 °F 59.0 °F 88% 30.18 in 6.2 mi SW 5.8 mph - N/A   Overcast
1:30 AM 62.6 °F 59.0 °F 88% 30.15 in 6.2 mi Calm Calm - N/A   Overcast
2:00 AM 60.8 °F 59.0 °F 94% 30.15 in 6.2 mi South 4.6 mph - N/A   Overcast
2:30 AM 60.8 °F 59.0 °F 94% 30.15 in 6.2 mi SW 3.5 mph - N/A   Overcast
3:00 AM 61 °F 59 °F 91% 30.16 in - WSW 5.8 mph - -   Overcast
3:00 AM 60.8 °F 59.0 °F 94% 30.15 in 6.2 mi WSW 5.8 mph - N/A   Overcast
3:30 AM 60.8 °F 59.0 °F 94% 30.15 in 6.2 mi SSW 3.5 mph - N/A   Overcast
4:00 AM 60.8 °F 59.0 °F 94% 30.15 in 6.2 mi South 4.6 mph - N/A   Overcast
4:30 AM 60.8 °F 59.0 °F 94% 30.15 in 6.2 mi South 4.6 mph - N/A   Overcast
5:00 AM 60.8 °F 59.0 °F 94% 30.15 in 6.2 mi Calm Calm - N/A   Overcast
5:30 AM 60.8 °F 59.0 °F 94% 30.15 in 6.2 mi Calm Calm - N/A   Overcast
6:00 AM 61 °F 59 °F 92% 30.17 in - SSW 3.5 mph - -   Overcast
6:00 AM 60.8 °F 59.0 °F 94% 30.15 in 6.2 mi SSW 3.5 mph - N/A   Overcast
6:30 AM 60.8 °F 59.0 °F 94% 30.15 in 6.2 mi Calm Calm - N/A   Overcast
7:00 AM 60.8 °F 59.0 °F 94% 30.15 in 6.2 mi SSE 2.3 mph - N/A   Overcast
7:30 AM 62.6 °F 59.0 °F 88% 30.18 in 6.2 mi SSE 3.5 mph - N/A   Overcast
8:00 AM 62.6 °F 60.8 °F 94% 30.18 in 6.2 mi South 1.2 mph - N/A   Overcast
8:30 AM 64.4 °F 60.8 °F 88% 30.18 in 6.2 mi Calm Calm - N/A   Overcast
9:00 AM 65 °F 60 °F 79% 30.19 in - SW 3.5 mph - -  
9:00 AM 64.4 °F 60.8 °F 88% 30.18 in 6.2 mi SW 3.5 mph - N/A   Overcast
9:30 AM 66.2 °F 60.8 °F 83% 30.18 in 6.2 mi West 2.3 mph - N/A   Overcast
10:00 AM 68.0 °F 59.0 °F 73% 30.18 in 6.2 mi Calm Calm - N/A   Overcast
10:30 AM 68.0 °F 57.2 °F 68% 30.18 in 6.2 mi North 4.6 mph - N/A   Overcast
11:00 AM 69.8 °F 55.4 °F 60% 30.15 in 6.2 mi NNW 5.8 mph - N/A   Overcast
11:30 AM 69.8 °F 51.8 °F 53% 30.15 in 6.2 mi NW 6.9 mph - N/A   Overcast
12:00 PM 71 °F 52 °F 41% 30.13 in - NW 5.8 mph - -   Overcast
12:00 PM 71.6 °F 51.8 °F 50% 30.12 in 6.2 mi NW 5.8 mph - N/A   Overcast
12:30 PM 69.8 °F 50.0 °F 49% 30.09 in 6.2 mi North 6.9 mph - N/A   Overcast
1:00 PM 71.6 °F 51.8 °F 50% 30.06 in 6.2 mi NE 8.1 mph - N/A   Overcast
1:30 PM 71.6 °F 55.4 °F 57% 30.06 in 6.2 mi NE 9.2 mph - N/A   Scattered Clouds
2:00 PM 71.6 °F 55.4 °F 57% 30.06 in 6.2 mi NNE 10.4 mph - N/A   Unknown
2:30 PM 71.6 °F 55.4 °F 57% 30.04 in 6.2 mi NNE 9.2 mph - N/A   Unknown
3:00 PM 71 °F 56 °F 50% 30.06 in - NE 9.2 mph - -  
3:00 PM 71.6 °F 57.2 °F 60% 30.04 in 6.2 mi NE 9.2 mph - N/A   Unknown
3:30 PM 69.8 °F 53.6 °F 56% 30.04 in 6.2 mi NNE 9.2 mph - N/A   Unknown
4:00 PM 69.8 °F 55.4 °F 60% 30.04 in 6.2 mi NNE 9.2 mph - N/A   Unknown
4:30 PM 68.0 °F 55.4 °F 64% 30.04 in 6.2 mi NNE 9.2 mph - N/A   Unknown
5:00 PM 66.2 °F 55.4 °F 68% 30.04 in 6.2 mi NNE 8.1 mph - N/A   Unknown
5:30 PM 66.2 °F 55.4 °F 68% 30.04 in 6.2 mi North 9.2 mph - N/A   Unknown
6:00 PM 65 °F 56 °F 66% 30.07 in - NNW 5.8 mph - -  
6:00 PM 64.4 °F 57.2 °F 77% 30.06 in 6.2 mi NNW 5.8 mph - N/A   Mostly Cloudy
6:30 PM 62.6 °F 57.2 °F 82% 30.06 in 6.2 mi West 4.6 mph - N/A   Overcast
7:00 PM 60.8 °F 57.2 °F 88% 30.06 in 6.2 mi West 5.8 mph - N/A   Overcast
7:30 PM 59.0 °F 57.2 °F 94% 30.06 in 6.2 mi WSW 5.8 mph - N/A   Mostly Cloudy
8:00 PM 59.0 °F 57.2 °F 94% 30.06 in 6.2 mi WSW 3.5 mph - N/A   Mostly Cloudy
8:30 PM 59.0 °F 57.2 °F 94% 30.06 in 6.2 mi WSW 3.5 mph - N/A   Overcast
9:00 PM 59 °F 56 °F 88% 30.09 in - WSW 1.2 mph - -  
9:00 PM 59.0 °F 57.2 °F 94% 30.06 in 6.2 mi WSW 1.2 mph - N/A   Overcast
9:30 PM 57.2 °F 55.4 °F 94% 30.06 in 6.2 mi WSW 2.3 mph - N/A   Scattered Clouds
10:00 PM 57.2 °F 55.4 °F 94% 30.06 in 6.2 mi South 3.5 mph - N/A   Scattered Clouds
10:30 PM 57.2 °F 55.4 °F 94% 30.06 in 6.2 mi SW 2.3 mph - N/A   Scattered Clouds
11:00 PM 57.2 °F 55.4 °F 94% 30.06 in 6.2 mi WSW 2.3 mph - N/A   Mostly Cloudy
11:30 PM 57.2 °F 55.4 °F 94% 30.06 in 6.2 mi SW 3.5 mph - N/A   Mostly Cloudy